Location: Lane
(33.5226°N, 79.8788°W)
Time: 21:03:36
(UTC+00:00)

Explorer 11/Cluster Stage 4 - All Passes

Search period start: 30 September 2022 00:00
Search period end: 10 October 2022 00:00
Orbit: 466 x 1249 km, 28.8° (Epoch: 30 September)

Date Brightness Start Highest point End Pass type
(mag) Time Alt. Az. Time Alt. Az. Time Alt. Az.
30 Sep - 16:09:59 10° SSW 16:16:02 24° SSE 16:21:33 10° ESE daylight
30 Sep - 17:57:30 10° WSW 18:04:39 45° SSE 18:10:38 10° E daylight
30 Sep - 19:46:33 10° WSW 19:53:16 56° S 19:58:37 10° ESE daylight
30 Sep - 21:36:03 10° W 21:41:31 39° SSW 21:45:56 10° SE daylight
30 Sep - 23:26:37 10° WSW 23:29:04 14° SSW 23:31:20 10° S visible
01 Oct - 15:56:54 10° SSW 16:03:24 27° SSE 16:09:24 10° ESE daylight
01 Oct - 17:44:41 10° WSW 17:52:06 48° SSE 17:58:22 10° E daylight
01 Oct - 19:33:50 10° WSW 19:40:48 57° S 19:46:23 10° ESE daylight
01 Oct - 21:23:25 10° W 21:29:05 38° SSW 21:33:40 10° SE daylight
01 Oct - 23:14:26 10° WSW 23:16:38 13° SSW 23:18:38 10° S daylight
02 Oct - 14:00:04 10° SSE 14:02:20 11° SSE 14:04:35 10° SE daylight
02 Oct - 15:43:53 10° SW 15:50:46 30° SSE 15:57:09 10° E daylight
02 Oct - 17:31:53 10° WSW 17:39:31 52° S 17:46:04 10° E daylight
02 Oct - 19:21:07 10° W 19:28:17 58° S 19:34:07 10° ESE daylight
02 Oct - 21:10:47 10° W 21:16:36 36° SSW 21:21:20 10° SE daylight
02 Oct - 23:02:22 10° SW 23:04:08 12° SSW 23:05:47 10° SSW daylight
03 Oct - 13:46:05 10° S 13:49:39 13° SSE 13:53:13 10° ESE daylight
03 Oct - 15:30:57 10° SW 15:38:06 34° SSE 15:44:50 10° E daylight
03 Oct - 17:19:06 10° WSW 17:26:55 55° S 17:33:43 10° E daylight
03 Oct - 19:08:23 10° W 19:15:46 58° S 19:21:48 10° ESE daylight
03 Oct - 20:58:09 10° W 21:04:06 34° SSW 21:08:59 10° SE daylight
03 Oct - 22:50:32 10° SW 22:51:37 11° SW 22:52:39 10° SSW daylight
04 Oct - 13:32:36 10° S 13:36:58 16° SSE 13:41:22 10° ESE daylight
04 Oct - 15:18:05 10° SW 15:25:25 37° SSE 15:32:27 10° E daylight
04 Oct - 17:06:21 10° WSW 17:14:18 58° S 17:21:20 10° E daylight
04 Oct - 18:55:40 10° W 19:03:12 57° S 19:09:28 10° ESE daylight
04 Oct - 20:45:30 10° W 20:51:33 33° SSW 20:56:35 10° SE daylight
05 Oct - 13:19:21 10° S 13:24:15 18° SSE 13:29:17 10° ESE daylight
05 Oct - 15:05:16 10° SW 15:12:43 40° SSE 15:20:01 10° E daylight
05 Oct - 16:53:38 10° WSW 17:01:40 60° S 17:08:55 10° E daylight
05 Oct - 18:42:57 10° W 18:50:37 56° S 18:57:06 10° ESE daylight
05 Oct - 20:32:52 10° W 20:38:59 31° SSW 20:44:08 10° SE daylight
06 Oct - 13:06:16 10° SSW 13:11:32 20° SSE 13:17:01 10° ESE daylight
06 Oct - 14:52:30 10° SW 15:00:01 43° SSE 15:07:31 10° E daylight
06 Oct - 16:40:55 10° WSW 16:49:00 61° S 16:56:28 10° E daylight
06 Oct - 18:30:14 10° W 18:38:00 55° S 18:44:41 10° ESE daylight
06 Oct - 20:20:14 10° W 20:26:23 29° SSW 20:31:38 10° SSE daylight
07 Oct - 12:53:17 10° SSW 12:58:49 22° SSE 13:04:40 10° ESE daylight
07 Oct - 14:39:47 10° SW 14:47:18 46° SSE 14:54:58 10° E daylight
07 Oct - 16:28:15 10° WSW 16:36:20 63° S 16:43:58 10° E daylight
07 Oct - 18:17:32 10° W 18:25:22 53° SSW 18:32:13 10° ESE daylight
07 Oct - 20:07:37 10° W 20:13:45 27° SSW 20:19:03 10° SSE daylight
08 Oct - 12:40:25 10° SSW 12:46:05 24° SSE 12:52:13 10° ESE daylight
08 Oct - 14:27:07 10° SW 14:34:35 49° SSE 14:42:24 10° E daylight
08 Oct - 16:15:35 10° WSW 16:23:40 63° S 16:31:26 10° E daylight
08 Oct - 18:04:51 10° W 18:12:42 51° SSW 18:19:43 10° ESE daylight
08 Oct - 19:55:02 10° W 20:01:04 25° SSW 20:06:26 10° SSE daylight
09 Oct - 12:27:38 10° SSW 12:33:23 26° SSE 12:39:42 10° E daylight
09 Oct - 14:14:29 10° WSW 14:21:53 51° SSE 14:29:47 10° E daylight
09 Oct - 16:02:58 10° W 16:10:59 63° S 16:18:52 10° ESE daylight
09 Oct - 17:52:11 10° W 18:00:00 49° SSW 18:07:10 10° ESE daylight
09 Oct - 19:42:29 10° WSW 19:48:23 24° SSW 19:53:43 10° SSE daylight
